User: anonymous   Login
Location: Forst
(46.9333°N, 15.4333°E)
Time: 08:27:33
(UTC+00:00)
Language:

deb Centaur AC-2 - Orbit

View from above orbital plane
View from above orbital plane
View from above satellite
View from above satellite

Ground track
Ground track

The orbit data is extracted from the following two-line orbital elements,

1 00698U 63047D   21166.49202696  .00000176  00000-0  43009-4 0  9991
2 00698  29.9206 187.5806 0548481  38.1480 325.6652 13.69372386827961
Epoch (UTC): 15 June 2021 11:48:31
Eccentricity: 0.0548481
inclination: 29.9206°
perigee height: 597 km
apogee height: 1406 km
right ascension of ascending node: 187.5806°
argument of perigee: 38.1480°
revolutions per day: 13.69372386
mean anomaly at epoch: 325.6652°
orbit number at epoch: 82796

The dashed part of the orbit path shows where the satellite is in the earth's shadow,  

DLR